Regional Weather Roundup
Issued by NWS

Home | Current Version | Previous Version | Text Only | Print | Product List | Glossary On
Versions: 1 2 3 4 5 6 7 8 9 10 11 12 13 14 15 16 17 18 19 20 21 22 23 24 25 26 27 28 29 30 31 32 33 34 35 36 37 38 39 40 41 42 43 44 45 46 47 48 49 50
000
ASUS43 KDTX 191210
RWRMI
MICHIGAN HOURLY REGIONAL WEATHER ROUNDUP
NATIONAL WEATHER SERVICE DETROIT/PONTIAC MI
ISSUED BY NATIONAL WEATHER SERVICE GRAND RAPIDS MI
800 AM EDT TUE JUN 19 2018

NOTE: "FAIR" INDICATES FEW OR NO CLOUDS BELOW 12,000 FEET WITH NO
SIGNIFICANT WEATHER AND/OR OBSTRUCTION TO VISIBILITY.

MIZ047>049-052>055-059>063-066>070-074>076-081>083-191300-
SOUTHEAST LOWER MICHIGAN

CITY           SKY/WX    TMP DP  RH WIND       PRES   REMARKS
ADRIAN         CLOUDY    69  64  84 NE9       30.02R
6HR MIN TEMP:  69; 6HR MAX TEMP:  75; 6HR PCP: TRACE;

ALMA           CLOUDY    68  65  91 E6        30.05R
6HR MIN TEMP:  66; 6HR MAX TEMP:  69;

ANN ARBOR      PTSUNNY   67  60  78 N6        30.02R
BAD AXE        FAIR      60  58  93 NE7       30.05S
6HR MIN TEMP:  55; 6HR MAX TEMP:  60;

DETROIT CITY   FAIR      68  59  73 NE10      30.01R
6HR MIN TEMP:  66; 6HR MAX TEMP:  70; 6HR PCP: TRACE;

DETROIT        CLOUDY    69  58  67 NE9       30.00S
6HR MIN TEMP:  68; 6HR MAX TEMP:  72; 6HR PCP: TRACE;

FLINT          FAIR      67  61  81 NE8       30.03R
6HR MIN TEMP:  65; 6HR MAX TEMP:  68;

GROSSE ILE     FAIR      67  60  77 NE9       29.99S
6HR MIN TEMP:  67; 6HR MAX TEMP:  70;

HILLSDALE      CLOUDY    68  66  94 NE8       30.02S FOG
HOWELL         PTSUNNY   65  62  90 CALM      30.04R
6HR MIN TEMP:  65; 6HR MAX TEMP:  69; 6HR PCP:  0.01;


CITY           SKY/WX    TMP DP  RH WIND       PRES   REMARKS
JACKSON        CLOUDY    68  65  90 NE5       30.02S
6HR MIN TEMP:  68; 6HR MAX TEMP:  73; 6HR PCP: TRACE;

LANSING        FAIR      67  63  87 E6        30.04S
6HR MIN TEMP:  66; 6HR MAX TEMP:  70;

MASON          CLOUDY    66  64  91 CALM      30.03F
6HR MIN TEMP:  66; 6HR MAX TEMP:  71;

MONROE         CLOUDY    67  64  89 N6        30.00R
6HR MIN TEMP:  67; 6HR MAX TEMP:  73; 6HR PCP:  0.01;

MT. CLEMENS    PTSUNNY   66  66 100 NE9       30.00S
6HR MIN TEMP:  63; 6HR MAX TEMP:  69;

PONTIAC        PTSUNNY   66  61  84 NE3       30.02R
6HR MIN TEMP:  64; 6HR MAX TEMP:  69;

PORT HOPE        N/A     58  57  97 E12       30.05R
6HR MIN TEMP:  57; 6HR MAX TEMP:  62;

PORT HURON     FAIR      63  59  88 NE9G16    30.03S
TRI CITIES     CLOUDY    69  63  81 NE12      30.05R
6HR MIN TEMP:  65; 6HR MAX TEMP:  70;

YPSILANTI      FAIR      70  60  70 NE7       30.01S
6HR MIN TEMP:  69; 6HR MAX TEMP:  74; 6HR PCP: TRACE;

$$
MIZ043>046-050>051-056>058-064>065-071>073-077>080-191300-
SOUTHWEST LOWER MICHIGAN

CITY           SKY/WX    TMP DP  RH WIND       PRES   REMARKS
BATTLE CREEK   CLOUDY    69  63  81 E9        30.02S
6HR MIN TEMP:  69; 6HR MAX TEMP:  76; 6HR PCP: TRACE;

BENTON HARBOR  CLOUDY    71  69  93 CALM      29.98F FOG
6HR MIN TEMP:  68; 6HR MAX TEMP:  71;

BIG RAPIDS     CLOUDY    65  61  85 S5        30.04S
6HR MIN TEMP:  64; 6HR MAX TEMP:  65;

COLDWATER      CLOUDY    69  69  99 E7        30.00F FOG
6HR MIN TEMP:  69; 6HR MAX TEMP:  75;

HOLLAND        PTSUNNY   69  65  86 E7        30.00S
6HR MIN TEMP:  69; 6HR MAX TEMP:  72; 6HR PCP:  0.01;

GRAND RAPIDS   CLOUDY    69  66  90 E7        30.02S
6HR MIN TEMP:  68; 6HR MAX TEMP:  71; 6HR PCP:  0.01;

KALAMAZOO      FAIR      71  64  78 NE8       30.00F
6HR MIN TEMP:  71; 6HR MAX TEMP:  76; 6HR PCP: TRACE;

MARSHALL       CLOUDY    68  65  92 E5        30.02R
6HR MIN TEMP:  67; 6HR MAX TEMP:  75;

MOUNT PLEASANT FAIR      66  62  87 NE7       30.04S
6HR MIN TEMP:  63; 6HR MAX TEMP:  67;

MUSKEGON       CLOUDY    68  64  87 NE3       30.01S
6HR MIN TEMP:  67; 6HR MAX TEMP:  69; 6HR PCP: TRACE;

STURGIS        CLOUDY    73  70  92 NE5       30.00R
6HR MIN TEMP:  73; 6HR MAX TEMP:  73;

$$
MIZ016>042-191300-
NORTHERN LOWER MICHIGAN

CITY           SKY/WX    TMP DP  RH WIND       PRES   REMARKS
ALPENA         FAIR      63  54  72 E8        30.11R
6HR MIN TEMP:  53; 6HR MAX TEMP:  63;

BEAVER ISLAND  FAIR      62  55  78 E12       30.08
6HR MIN TEMP:  53; 6HR MAX TEMP:  62;

BELLAIRE       FAIR      61  57  86 N3        30.06F
6HR MIN TEMP:  53; 6HR MAX TEMP:  61;

CADILLAC       FAIR      59  57  94 E5        30.06R
CHARLEVOIX     FAIR      64  55  75 E14G20    30.09S
6HR MIN TEMP:  55; 6HR MAX TEMP:  64;

GAYLORD        FAIR      58  54  86 E5        30.09S
6HR MIN TEMP:  53; 6HR MAX TEMP:  59;

HOUGHTON LAKE  FAIR      59  56  89 E8        30.08R
6HR MIN TEMP:  54; 6HR MAX TEMP:  60;

MANISTEE       FAIR      61  57  87 E5        30.04R
OSCODA         FAIR      62  55  77 NE9       30.09R
6HR MIN TEMP:  58; 6HR MAX TEMP:  62;

PELLSTON       FAIR      63  55  75 SE6       30.10S
6HR MIN TEMP:  51; 6HR MAX TEMP:  63;

TRAVERSE CITY  PTSUNNY   62  58  86 CALM      30.04S
6HR MIN TEMP:  56; 6HR MAX TEMP:  62;

LUDINGTON      CLOUDY    63  59  86 CALM      30.03R
6HR MIN TEMP:  62; 6HR MAX TEMP:  64;

$$
MIZ007>008-015-191300-
EASTERN UPPER MICHIGAN

CITY           SKY/WX    TMP DP  RH WIND       PRES   REMARKS
KINROSS        FAIR      59  52  77 NE3       30.12R
6HR MIN TEMP:  50; 6HR MAX TEMP:  59;

MACKINAC ISLAN FAIR      61  56  83 E8        30.10R
6HR MIN TEMP:  55; 6HR MAX TEMP:  61;

NEWBERRY       FAIR      54  53  96 NE5       30.11R
6HR MIN TEMP:  47; 6HR MAX TEMP:  54;

S. S. MARIE    FAIR      61  53  75 VRB3      30.10S
6HR MIN TEMP:  50; 6HR MAX TEMP:  61;

$$
MIZ004>006-011>014-085-191300-
CENTRAL UPPER MICHIGAN

CITY           SKY/WX    TMP DP  RH WIND       PRES   REMARKS
MANISTIQUE     FAIR      60  57  88 E6        30.08S
6HR MIN TEMP:  50; 6HR MAX TEMP:  60;

ESCANABA       FAIR      60  53  77 N3        30.09R
6HR MIN TEMP:  54; 6HR MAX TEMP:  60;

MENOMINEE      FAIR      59  53  80 NE5       30.08R
6HR MIN TEMP:  57; 6HR MAX TEMP:  61;

SAWYER-GWINN   SUNNY     59  48  67 NE5       30.11R
$$
MIZ001>003-009>011-084-191300-
WESTERN UPPER MICHIGAN

CITY           SKY/WX    TMP DP  RH WIND       PRES   REMARKS
IRON MOUNTAIN  FAIR      61  52  72 NE8       30.08R
6HR MIN TEMP:  52; 6HR MAX TEMP:  62;

HOUGHTON       FAIR      63  50  62 E8        30.11R
6HR MIN TEMP:  54; 6HR MAX TEMP:  63;

COPPER HARBOR    N/A     57  50  77 E3        30.10S
6HR MIN TEMP:  51; 6HR MAX TEMP:  58;

IRONWOOD       FAIR      57  54  89 E6        30.11S
6HR MIN TEMP:  50; 6HR MAX TEMP:  57;

$$

ABBREVIATIONS USED IN REMARKS
   TC - TEMPERATURE IN CELSIUS
  WCI - WIND CHILL INDEX
   HX - HEAT INDEX
  VSB - VISIBILITY





USA.gov is the U.S. government's official web portal to all federal, state and local government web resources and services.